Lid_Strength_Index
-0 0 1 3 11 11 14 12 8 10 10 6 6 7 8 7 9 12 2 1 0 0 -0 -1 -1 -1 -1 -2 -2 -1 -1 -1 -1 -2 -2 -1 -2 -1 -1 -1 -1 -1 -1 -1 -1 -1 -2 -2 -1
0 1 2 7 13 15 14 9 11 9 7 6 6 6 8 9 5 4 3 1 0 -0 -0 -0 -1 -2 -1 -2 -2 -2 -1 -1 -1 -1 -1 -1 -1 -1 -1 -1 -1 -2 -1 -1 -1 -2 -1 -1 -1
0 1 7 10 12 15 14 10 9 8 6 6 7 5 6 8 4 4 1 0 0 0 -0 -0 -1 -2 -2 -2 -2 -2 -2 -1 -1 -1 -1 -1 -1 -1 -1 -1 -1 -2 -1 -1 -1 -1 -1 -1 -1
2 4 6 12 13 10 10 9 8 8 6 6 6 8 5 3 3 2 1 0 1 0 -0 -1 -1 -2 -2 -2 -1 -1 -1 -1 -1 -1 -1 -2 -1 -1 -2 -1 -1 -1 -2 -2 -1 -1 -1 -1 -1
3 6 11 12 11 9 7 7 7 8 8 7 6 9 7 3 1 2 1 0 1 0 -0 -0 -2 -2 -2 -1 -1 -1 -1 -1 -1 -1 -2 -2 -2 -2 -2 -1 -1 -1 -2 -1 -1 -1 -1 -1 -1
7 7 12 13 11 8 7 7 7 8 7 7 7 8 7 2 2 1 1 1 0 0 -0 -0 -1 -1 -1 -1 -1 -1 -1 -1 -1 -2 -1 -1 -1 -2 -2 -2 -1 -1 -1 -1 -1 -1 -1 -1 -1
7 9 11 11 11 10 7 6 8 8 8 8 5 9 6 4 2 1 1 0 0 -0 -0 -0 -0 -1 -1 -1 -1 -1 -1 -1 -1 -1 -1 -1 -1 -1 -1 -2 -1 -1 -1 -1 -1 -1 -1 -1 -1
5 8 10 10 11 10 6 6 6 7 8 4 4 9 9 4 2 1 1 1 1 0 -0 0 0 0 0 -0 -1 -2 -2 -1 -1 -2 -2 -2 -2 -2 -1 -2 -1 -1 -1 -1 -1 -1 -1 -1 -1
4 10 12 10 10 9 6 7 5 4 6 5 5 5 4 2 2 2 2 2 1 1 0 -0 0 0 0 -0 -1 -1 -2 -1 -2 -1 -2 -2 1 0 -0 -1 -2 -1 -1 -1 -1 -1 -1 -1 -1
6 10 9 7 7 8 6 7 7 7 7 7 6 4 3 3 3 3 4 3 3 2 1 0 0 0 0 -0 0 0 -0 0 0 -0 -0 -0 1 1 -0 -1 -1 -1 -1 -1 -1 -1 -1 -1 -0
6 9 7 6 6 5 6 7 6 8 9 7 7 6 4 4 3 4 4 4 3 2 1 1 0 0 0 0 1 1 1 1 0 -0 -0 0 0 1 1 0 0 1 0 1 -0 -0 -1 -0 -0
8 6 6 5 5 6 7 6 7 7 7 5 4 4 4 4 4 4 3 3 3 2 1 1 0 1 0 -0 0 -0 0 1 1 0 -0 1 1 0 0 1 0 1 1 1 0 -0 -0 -0 -1
7 6 6 5 5 5 5 7 7 7 5 4 4 4 4 4 4 3 3 2 2 2 1 1 1 0 0 -0 0 1 0 -0 1 2 -0 0 1 1 0 1 1 1 1 1 1 -0 0 1 0
6 6 6 5 6 6 7 7 7 6 4 5 5 5 4 4 4 3 3 3 2 2 1 1 1 0 1 1 0 -0 -0 -0 0 1 1 0 1 1 0 -0 0 0 0 -0 -0 0 0 0 0
5 7 7 6 6 7 6 9 9 6 5 6 5 5 4 4 3 3 3 3 2 2 1 1 1 0 1 1 1 0 0 0 0 1 0 1 1 0 -0 0 0 0 -0 -0 0 -0 -0 0 -0
8 7 10 7 7 6 7 13 8 5 6 6 5 5 5 4 4 3 2 2 2 2 2 1 0 1 1 1 1 0 1 1 0 0 0 -0 0 0 0 0 0 -0 -0 -0 0 0 1 1 1
9 11 10 9 6 7 8 11 7 5 6 6 6 5 5 4 4 3 2 2 2 2 2 1 1 1 1 1 1 1 1 1 1 1 0 1 1 1 1 0 0 -0 -0 0 0 0 1 1 1
11 11 9 11 8 7 9 10 8 6 6 6 6 5 5 5 4 3 2 2 2 1 1 1 1 1 1 0 1 0 1 1 1 1 1 1 1 2 2 2 0 0 0 0 1 1 1 1 1
9 10 9 8 7 8 9 10 8 7 6 7 6 6 5 5 3 3 2 2 2 1 2 2 1 1 1 1 2 2 2 1 1 1 1 1 1 1 1 2 1 1 1 1 1 1 1 2 1
9 10 10 8 7 8 9 10 8 7 7 6 6 6 5 5 4 3 3 3 3 2 2 1 1 1 1 1 1 1 1 1 1 0 1 1 1 1 1 1 1 1 1 2 2 1 2 2 1
10 10 10 10 8 8 9 11 10 7 6 6 5 6 5 6 5 4 4 3 3 3 2 2 2 1 1 1 1 1 1 1 2 1 1 1 0 1 1 1 1 1 1 2 2 2 2 3 2
12 8 7 8 11 13 9 16 12 10 9 7 7 7 6 5 5 4 4 3 3 2 2 1 1 1 1 1 1 2 2 3 2 2 1 1 1 1 0 0 0 1 1 2 1 1 1 2 3
9 7 8 8 12 13 12 15 13 10 10 9 8 7 6 5 5 5 4 3 3 2 2 2 1 1 1 1 1 2 2 2 2 2 2 1 1 0 0 1 1 1 1 1 2 1 1 1 3
7 9 10 11 13 15 13 13 14 12 11 8 8 7 6 6 5 4 3 3 4 3 2 2 2 2 1 1 1 1 2 2 2 2 2 2 1 1 1 0 1 1 1 1 1 1 1 1 2
10 13 16 15 16 16 13 13 12 9 8 8 8 7 6 5 5 5 4 4 3 3 2 2 2 2 2 2 2 2 2 2 2 2 2 2 2 2 1 1 2 1 1 1 1 1 1 1 1
11 12 15 17 17 15 12 16 12 8 7 7 7 6 6 5 5 4 4 4 3 3 2 2 2 2 2 2 2 2 2 2 2 2 2 2 2 2 1 1 1 1 1 1 1 1 1 1 1
10 13 11 14 15 15 15 13 10 8 9 8 8 7 6 6 5 4 4 3 3 3 3 2 2 2 2 2 2 2 2 2 2 2 2 1 1 1 1 1 1 1 1 1 1 2 2 2 1
9 9 13 14 17 20 17 16 14 11 11 9 8 8 7 5 5 4 4 4 3 4 3 2 4 4 3 3 3 3 3 3 2 2 2 1 1 1 1 1 1 1 1 1 1 2 2 2 2
10 12 12 13 13 18 19 17 11 10 10 9 8 7 7 6 5 5 4 5 4 2 3 3 2 2 2 3 3 3 3 3 3 3 3 2 2 2 1 1 1 1 1 1 1 1 2 2 2
10 11 12 13 15 14 16 16 9 9 8 8 8 7 6 5 5 4 4 4 4 4 3 2 2 2 2 3 2 3 3 3 4 4 4 4 4 3 3 3 3 2 1 1 1 1 1 2 2